Location: Molalla
(45.1473°N, 122.5770°W)
Time: 22:15:06
(UTC-07:00)

N. Korean satellite - Visible Passes

Search period start: 20 October 2019 00:00
Search period end: 30 October 2019 00:00
Orbit: 455 x 508 km, 97.2° (Epoch: 20 October)

Date Brightness Start Highest point End Pass type
(mag) Time Alt. Az. Time Alt. Az. Time Alt. Az.
20 Oct 10.4 19:27:29 10° WSW 19:28:41 11° W 19:29:52 10° WNW visible
21 Oct 7.9 06:49:03 10° NNE 06:52:34 45° E 06:56:05 10° S visible
21 Oct 9.4 19:00:24 10° SSW 19:03:10 22° W 19:05:57 10° NW visible
22 Oct 9.4 06:24:12 10° NE 06:27:09 23° E 06:30:06 10° SSE visible
23 Oct 10.3 06:00:11 10° ENE 06:01:40 12° E 06:03:07 10° ESE visible
24 Oct 6.8 07:06:23 10° NNE 07:10:03 78° ESE 07:13:44 10° S visible
24 Oct 10.0 19:18:49 10° SW 19:20:44 14° W 19:22:41 10° WNW visible
25 Oct 8.4 06:41:16 10° NNE 06:44:42 37° E 06:48:08 10° SSE visible
25 Oct 9.0 18:52:14 10° SSW 18:55:14 28° W 18:58:18 10° NW visible
26 Oct 9.7 06:16:33 10° NE 06:19:15 19° E 06:21:57 10° SE visible
28 Oct 7.3 06:58:31 10° NNE 07:02:10 62° E 07:05:51 10° S visible
28 Oct 9.8 19:10:22 10° SW 19:12:46 18° W 19:15:12 10° NW visible
29 Oct 8.8 06:33:29 10° NNE 06:36:47 30° E 06:40:05 10° SSE visible
29 Oct 8.5 18:44:05 10° SSW 18:47:16 35° W 18:50:32 10° NNW visible
